Dewpoint
50 50 50 50 50 49 50 50 50 50 50 51 52 54 57 56 56 52 43 37 37 48 50 45 41 37 35 34 34 34 26 22 20 19 19 21 19 24 30 27 28 30 29 25 27
49 49 48 48 48 48 48 49 49 50 50 50 50 53 56 56 49 43 42 37 41 50 42 38 34 35 34 33 35 31 24 22 22 21 20 20 22 21 27 25 26 28 27 24 26
48 48 48 47 47 48 48 48 48 48 49 49 50 51 54 54 39 32 40 40 45 54 36 34 29 30 28 28 32 30 27 24 23 23 23 22 20 25 25 20 20 25 30 25 26
48 48 48 47 47 47 47 48 48 48 48 49 51 52 54 48 15 37 44 43 47 49 32 30 27 28 25 25 29 27 27 26 26 25 25 24 24 21 25 25 22 26 29 27 26
47 47 47 47 47 47 47 47 47 48 49 50 52 52 51 37 27 44 48 49 50 42 28 26 27 27 25 24 25 25 26 26 24 28 28 28 27 25 24 24 25 27 32 28 27
46 46 46 46 46 46 46 47 47 48 50 50 51 52 49 29 21 38 38 44 40 33 25 24 23 26 25 25 25 26 28 29 27 27 29 27 27 27 26 27 27 27 29 29 28
46 46 46 45 45 45 46 47 48 49 51 52 53 51 44 31 16 25 23 27 30 28 21 23 24 26 25 23 26 27 26 24 24 25 25 26 26 25 27 27 25 27 28 29 29
45 45 45 45 45 46 47 48 49 50 50 52 54 49 30 25 20 12 14 16 17 18 19 20 23 25 23 26 24 22 21 20 22 22 24 27 17 19 24 22 25 26 27 28 30
44 44 44 45 46 48 48 48 48 53 52 53 48 37 27 25 20 17 15 17 17 16 17 21 23 19 20 20 16 17 17 18 17 20 21 24 16 16 19 18 18 17 20 25 27
44 44 44 46 48 48 48 47 47 51 48 36 28 31 26 22 18 13 12 16 15 17 16 19 20 18 18 17 16 19 15 12 12 18 19 18 19 17 16 18 18 18 16 21 25
44 45 45 47 47 46 44 38 33 36 33 30 33 31 31 33 19 17 13 12 15 15 15 18 19 19 20 19 18 16 13 16 16 15 14 14 16 18 19 19 18 19 20 19 21
44 45 45 45 45 45 39 37 41 40 34 34 36 35 34 34 29 19 13 16 18 19 21 21 18 19 20 21 20 19 16 14 13 17 16 17 17 17 17 17 17 17 18 19 20
44 44 45 45 44 42 41 41 42 42 34 31 35 26 18 18 28 26 14 18 18 20 21 19 15 12 17 14 12 13 13 14 17 17 14 13 11 12 13 15 16 18 20 22 22
44 44 44 43 41 41 39 41 40 42 28 29 27 21 16 15 16 13 13 13 10 10 11 12 14 9 9 9 11 14 11 13 14 13 13 12 7 8 13 16 18 20 22 23 25
44 44 42 42 42 35 36 38 41 41 18 23 20 18 20 16 16 15 9 9 11 12 11 16 14 10 10 13 12 14 7 8 10 11 12 11 10 10 15 18 22 24 24 24 24
44 43 41 39 40 35 36 38 43 30 18 26 27 27 23 21 19 15 11 8 10 11 10 10 8 10 10 6 5 4 7 8 8 9 9 9 10 15 22 24 23 22 23 24 24
44 43 37 37 32 33 37 39 24 13 19 23 26 25 20 18 24 22 19 17 19 20 18 18 12 5 5 8 5 4 9 12 12 11 11 10 10 19 25 24 24 23 24 26 26
43 41 35 36 30 35 38 27 12 14 20 27 25 22 19 25 24 24 22 19 18 16 16 12 12 9 8 9 12 8 12 13 10 5 11 16 15 25 21 21 23 23 24 23 26
41 32 31 26 30 36 31 14 12 24 27 25 18 13 12 27 24 21 18 18 23 26 13 15 15 10 9 4 16 12 11 19 17 11 12 8 20 22 21 22 23 25 23 24 23
35 30 27 27 33 37 26 13 21 28 28 25 15 13 15 19 20 16 14 21 26 28 26 25 18 19 8 6 13 20 17 14 14 7 2 1 5 18 20 20 23 22 23 27 25
32 26 27 29 36 26 17 15 15 21 23 20 15 17 15 16 22 18 19 28 31 27 26 25 22 17 17 13 15 16 13 16 19 16 9 4 8 27 25 26 26 27 27 25 25
32 23 28 29 17 14 13 15 17 16 21 20 19 19 22 24 23 18 15 28 28 26 26 26 22 14 9 20 21 19 17 18 14 9 18 16 13 28 29 29 29 28 26 20 18
32 27 28 24 13 15 17 17 16 17 16 16 15 22 23 21 18 18 19 30 29 27 26 25 16 7 1 14 21 20 21 20 18 19 11 10 12 23 28 28 28 23 19 16 14
34 25 21 21 23 19 18 15 15 17 16 22 21 18 20 16 14 20 19 24 21 21 23 24 19 12 6 4 8 9 9 9 13 15 8 6 9 14 21 22 23 23 15 11 14
33 28 25 19 20 19 19 17 16 12 16 17 15 16 22 14 14 12 11 13 14 16 19 20 13 10 9 8 10 10 9 9 10 11 9 6 6 8 12 24 24 13 12 14 16
32 29 31 26 23 21 20 17 14 13 14 14 14 19 21 19 15 18 17 16 15 19 18 20 13 12 11 9 8 6 6 8 9 8 8 8 8 12 12 15 13 10 11 14 16
36 35 32 29 25 24 20 18 14 14 16 17 18 22 19 18 19 20 20 19 19 16 17 18 16 15 6 3 6 5 6 7 9 12 10 9 16 22 18 21 18 12 10 13 17
Wind_Speed
25 25 26 26 26 26 25 24 22 21 20 20 19 16 12 11 9 11 18 11 9 13 11 14 14 15 13 12 13 11 13 21 32 24 24 3 6 6 2 9 2 7 4 5 20
24 25 25 26 27 27 27 26 25 23 21 20 19 19 14 8 12 20 12 7 10 20 16 19 17 16 13 17 10 17 19 26 25 19 18 15 9 14 6 10 13 10 5 10 18
24 25 26 27 27 27 27 27 27 26 23 21 17 16 15 12 10 6 2 12 14 21 15 16 14 17 17 11 21 12 31 24 21 9 10 16 17 11 13 19 18 17 17 16 18
26 27 27 28 29 29 29 28 27 25 25 23 17 13 9 8 8 4 11 15 17 17 11 15 15 17 15 20 22 20 24 27 26 21 12 18 19 21 16 29 21 7 7 25 23
29 30 31 32 34 34 33 31 28 27 24 21 15 9 4 8 14 7 9 13 16 15 17 17 19 21 17 16 23 26 26 21 19 16 21 20 25 23 27 28 18 9 6 21 22
29 31 32 34 34 35 35 35 32 28 25 22 16 11 9 16 3 6 7 12 11 16 17 18 10 21 13 19 20 5 17 20 19 23 19 21 22 20 27 18 22 19 13 16 20
31 32 34 36 36 37 36 35 32 29 25 18 13 13 10 12 2 5 9 9 8 11 12 14 16 10 6 17 20 13 17 20 24 25 20 12 20 23 27 22 23 16 15 17 18
33 34 36 37 39 39 38 34 28 20 12 5 10 15 6 3 0 4 6 5 7 7 7 4 9 14 18 7 6 9 16 20 7 14 8 9 19 11 12 6 10 13 15 16 17
34 36 38 40 40 39 35 28 18 5 3 10 8 7 3 4 3 2 4 6 6 5 5 5 7 11 8 16 16 18 20 21 18 14 6 15 13 4 2 4 9 10 10 13 15
36 38 39 40 41 36 30 21 3 5 4 3 2 5 4 2 3 2 1 6 4 8 6 7 8 12 16 19 23 17 23 22 17 6 9 14 19 19 20 14 18 16 14 13 13
38 38 38 39 37 30 24 3 5 4 5 7 8 7 6 2 2 3 3 7 5 9 11 14 12 20 24 25 26 26 24 20 17 11 9 20 24 23 22 19 21 20 16 14 10
38 39 40 40 32 21 12 7 4 5 12 10 10 7 5 3 4 6 4 10 11 19 17 13 25 26 22 16 16 19 20 21 17 10 7 18 25 23 22 20 13 7 9 10 10
36 38 40 38 26 8 13 9 6 3 7 4 3 4 2 3 2 5 4 5 9 14 16 19 2 2 11 11 13 17 19 15 14 7 13 18 23 25 4 9 8 10 8 7 7
37 38 38 35 8 9 4 12 10 4 6 5 3 2 1 3 2 1 1 4 4 8 12 14 9 6 8 12 12 14 4 3 7 6 11 1 12 14 11 10 9 8 7 9 8
37 38 37 17 10 7 12 15 8 4 7 3 3 2 1 4 0 4 2 4 8 5 4 2 2 4 9 6 1 1 4 1 7 13 15 18 11 5 10 10 8 9 9 8 7
38 40 31 2 4 9 17 13 4 5 7 2 1 1 6 4 3 3 4 3 2 5 10 16 2 1 2 2 2 2 3 4 4 5 10 21 21 2 4 2 3 7 10 8 6
40 41 15 7 9 19 13 4 7 6 3 2 1 4 11 7 5 4 6 7 5 5 9 6 6 3 1 2 1 3 4 5 7 9 7 5 8 6 3 3 4 4 6 6 3
43 31 7 6 16 14 6 6 8 3 5 6 5 17 9 2 4 3 4 9 5 3 7 8 8 7 4 2 3 11 8 8 7 9 5 7 7 3 4 2 1 2 3 2 3
37 15 4 9 17 9 7 7 6 8 7 13 20 9 5 2 4 4 7 12 2 2 7 4 4 4 2 1 2 5 7 2 5 12 11 14 1 4 8 5 3 2 3 5 4
22 14 6 17 14 5 6 5 5 7 10 9 9 4 10 5 8 6 6 3 3 1 3 2 6 3 3 3 3 3 3 4 4 6 14 11 11 4 13 10 5 7 5 5 5
13 12 8 22 4 8 7 6 10 8 11 7 11 17 18 18 8 12 7 2 5 1 4 2 3 4 5 8 3 4 5 4 5 10 15 19 9 8 14 15 13 6 6 4 4
9 11 15 18 14 3 7 12 9 10 8 9 9 10 10 7 6 8 10 4 4 3 3 1 2 9 15 5 2 2 5 4 9 10 4 10 18 8 10 12 8 4 8 5 3
13 11 5 13 5 8 12 10 13 11 11 6 8 4 8 8 8 6 6 5 5 5 3 2 3 7 7 3 2 3 5 4 7 6 12 11 4 3 7 6 5 3 5 3 4
5 8 5 3 1 4 6 7 9 7 10 4 9 10 7 7 9 9 12 3 7 9 8 5 5 11 19 18 14 12 14 15 12 10 15 19 22 9 8 10 11 9 2 3 3
3 5 4 14 18 9 6 8 11 9 4 7 7 10 5 4 11 16 8 15 15 9 3 4 13 17 17 20 17 18 20 20 20 20 22 22 21 18 14 11 9 3 3 3 5
6 3 4 13 16 13 11 8 13 10 5 12 16 18 8 9 16 19 15 12 8 3 4 4 9 10 13 14 17 20 22 22 20 20 21 20 24 6 7 8 5 6 4 3 4
4 3 6 7 8 11 16 16 10 7 8 10 12 12 19 22 15 13 17 19 18 17 14 6 6 4 12 5 7 14 21 16 13 8 9 11 3 5 5 6 5 3 3 3 4
Wind_Direction
355 352 349 346 343 339 336 332 330 327 324 321 322 312 307 306 279 250 246 246 203 186 195 173 192 199 207 213 214 225 233 242 247 250 259 243 242 178 327 259 234 190 297 89 135
354 350 348 345 341 335 332 328 325 322 321 318 318 312 308 300 270 261 248 207 205 173 178 175 185 183 193 214 206 210 227 240 249 266 279 271 227 264 219 226 229 229 143 143 153
353 349 346 342 338 331 330 326 322 318 315 312 311 308 312 295 274 220 66 179 185 175 194 197 190 191 218 215 214 227 241 249 263 265 279 275 270 255 251 256 249 247 207 178 177
349 347 344 339 334 330 328 323 319 313 310 305 304 299 307 269 271 93 142 167 173 177 195 196 205 196 220 218 218 241 241 251 266 275 278 265 272 263 248 254 277 302 264 174 190
348 345 342 338 333 329 326 322 317 312 306 298 292 284 250 234 254 133 142 149 158 177 192 190 197 204 224 229 234 235 247 261 256 265 264 267 262 268 262 265 259 249 209 186 195
346 343 340 336 331 326 322 319 316 310 298 286 273 258 221 243 47 148 159 163 183 187 200 206 216 218 269 252 236 261 254 260 262 255 257 251 258 251 256 260 252 242 209 213 208
347 343 338 334 329 324 320 316 315 312 303 280 247 205 228 254 60 162 173 192 204 213 215 219 238 222 235 256 243 262 258 263 253 251 245 258 262 245 252 264 259 244 221 229 219
346 342 337 334 329 324 319 316 315 310 313 302 181 177 248 61 149 204 196 179 188 200 231 250 229 245 251 274 245 242 240 257 247 224 219 192 261 263 220 263 232 237 232 230 224
346 343 338 335 330 324 320 318 314 326 89 127 154 217 229 134 185 170 251 240 184 187 188 179 193 220 203 233 250 233 255 244 245 180 196 206 270 213 172 231 238 233 232 219 216
346 343 339 337 332 328 323 312 261 186 162 235 257 232 179 128 115 143 138 189 196 169 163 199 205 216 214 221 232 239 246 246 256 184 213 233 248 261 267 241 258 263 257 218 215
345 342 340 339 337 329 331 298 315 202 356 272 296 289 290 343 213 193 165 177 183 207 213 201 231 224 230 231 247 269 270 264 264 254 244 255 262 263 261 256 260 263 258 259 222
344 340 339 338 336 326 20 59 38 305 306 287 270 270 283 286 245 195 191 196 208 228 234 228 247 252 265 262 257 240 249 253 262 266 248 268 273 273 264 268 288 306 16 348 324
343 340 338 334 329 311 45 48 330 276 268 274 240 288 331 238 296 155 214 215 232 230 214 219 251 5 210 221 224 235 240 251 264 304 262 271 281 266 108 103 75 54 46 15 337
340 338 336 332 301 339 15 353 340 233 286 136 167 142 233 279 228 75 225 278 222 237 230 247 258 225 234 248 230 244 21 278 279 276 275 221 279 287 192 146 64 34 34 34 30
336 336 336 331 315 350 324 323 318 236 316 80 131 109 224 238 71 166 168 206 257 250 212 224 254 230 235 242 252 319 41 330 280 270 282 257 255 233 156 148 30 27 37 44 46
334 336 337 345 280 336 325 316 256 245 247 152 139 246 316 210 213 143 196 222 306 264 236 265 90 352 3 36 14 92 302 274 285 256 253 244 204 193 133 87 62 50 50 43 46
334 334 332 314 333 324 321 267 282 243 97 38 306 320 322 274 263 243 218 209 244 243 227 209 210 125 158 211 137 189 204 232 212 195 246 126 219 281 66 104 87 64 34 19 38
330 324 309 294 328 325 302 276 263 34 357 354 320 302 257 2 223 281 251 241 211 261 279 255 258 167 140 260 302 204 249 262 271 284 300 163 236 205 118 124 24 302 265 133 108
328 336 294 345 336 317 293 267 323 6 341 327 317 275 239 216 311 313 246 272 40 285 230 247 224 120 69 306 254 170 216 3 307 271 272 252 148 106 130 120 98 66 71 66 75
328 321 296 329 328 269 263 271 357 356 333 321 302 298 304 334 316 302 271 89 181 356 335 5 280 141 125 199 201 290 19 256 202 262 257 252 264 196 170 157 117 80 58 55 60
337 327 11 337 298 266 288 349 325 344 346 320 307 298 301 311 311 292 283 101 31 335 319 356 258 138 183 206 288 217 237 215 281 263 261 270 264 353 158 144 122 57 20 356 9
316 325 355 335 309 350 4 331 329 332 336 306 302 296 299 300 283 276 282 52 55 348 305 51 289 272 281 116 56 322 283 307 252 258 291 284 270 31 94 119 114 43 330 344 345
315 297 300 321 339 354 337 320 315 313 333 322 302 8 324 310 302 283 305 15 22 8 352 322 225 288 259 170 89 195 178 218 276 279 272 269 295 161 155 180 218 272 299 335 356
296 303 295 70 29 327 328 306 312 317 311 288 280 291 300 298 292 295 296 304 340 304 294 311 246 251 265 286 316 282 274 268 254 255 268 264 283 237 203 234 238 268 291 322 4
221 272 325 289 294 299 257 273 286 304 259 285 285 275 314 283 292 273 292 317 314 312 264 267 267 270 268 277 286 284 275 270 257 255 258 274 281 285 294 216 254 48 41 18 31
246 274 233 262 270 260 242 241 254 277 259 275 275 283 272 253 277 292 293 280 271 277 260 242 271 277 271 264 262 269 264 261 261 263 265 268 273 356 37 85 113 81 69 54 44
222 291 250 269 236 226 247 265 248 264 275 265 281 288 282 275 280 279 280 270 255 264 264 260 269 249 271 293 305 272 256 242 252 240 256 255 331 125 100 81 68 67 72 81 59